Showing default

CONNECTA IOT-10, 64555

Orbit data source: Space-Track

CONNECTA IOT-10, 64555 is a payload satellite owned by Plan-S (TR) in SSO that was launched on Mon, 23 Jun 2025 UTC via an FALCON 9 launch vehicle from the Air Force Western Test Range (AFWTR). Payload-class satellites include a variety of spacecraft equipped with specific instruments for various scientific and technological missions. These include communications satellites like Starlink; space stations such as the ISS; scientific satellites like the Hubble; Earth observation satellites from companies like Planet Labs, Umbra, and HawkEye 360; GPS; miniature CubeSats for education and research; and military/defense satellites.

Loading next visibility...
Identifier
64555, 2025-135AD
Orbit
SSO
Country
Flag of UnknownUnknown / TURK
Related business
Manufacturer
Plan-S
Mission
Operational Commercial Communications
Bus & Motor
CUBESAT 6U, Unknown motor
Mass
10 kg wet, 10 kg dry
Launch date (UTC)
2025-06-23 (5 months ago)
Launch vehicle
FALCON 9
Launch site
Air Force Western Test Range (AFWTR)
Object type
Payload
Rocket body
Debris
Shape & HBR
Box, 0.1 m
Radar Cross Section
0.080 m², Medium (>0.1 m² and < 1m²)

Expand to show TLE details & history
Last TLE update: 1 day ago

TLE from 1 day ago
0 CONNECTA IOT-10
1 64555U 25135AD  25312.77352661  .00009165  00000-0  43684-3 0  9990
2 64555  97.4547  65.2648 0001798  59.8108 300.3304 15.19329357 21371
Epoch: 2025-11-08T18:33Z
TLE epoch observation values (Epoch: 2025-11-08T18:33:52.699Z)
Latitude
-0.00005°
Longitude
98.5969°
Altitude
510.329 km
Speed
7.609 km/s
True Right ascension
04h 21m 03s
True Declination
0° 00' 00"
Sunlit
Object was in full shadow at epoch
Visualization orbit readout
Latitude
Unknown
Longitude
Unknown
Altitude
Unknown
Speed
Unknown
Apparent Right ascension
Unknown
Apparent Declination
Unknown
Sunlit
N/A
Visualization observer readout
Local Sidereal Time
19:05:13
Azimuth
Unknown
Elevation
Unknown
Doppler factor
Unknown
Orbital elements
Apogee altitude
506.073 km
Perigee altitude
503.597 km
Semi-major axis
6,882.972 km
Eccentricity
0.00018
Inclination
97.4547°
RAAN
65.2648°
Arg. of periapsis
59.8108°
True anomaly
300.31261°
Mean anomaly
300.3304°
Eccentric anomaly
300.32151°
Mean motion
3.80084 °/min
Orbital period
94.72 mins
BSTAR
0.00043684
Loading maneuver chart data...
Computing Atmospheric mass density...
Loading historical data...
Loading historical data...
Loading historical data...
Loading historical data...
Loading historical data...
Loading historical data...
Loading historical data...

Documentation

Showing up to 5 results
|